Hourly Data Report for September 23, 2017

All times are specified in Local Standard Time (LST). Add 1 hour to adjust for Daylight Saving Time where and when it is observed.

WOODSTOCK NEWBRIDGE
NEW BRUNSWICK

46°09'08.000" N
67°32'34.000" W
154.00 m
8105603
71606
EWD

Download Data

Hourly Data (September 2017)
Hourly Data Report for September 23, 2017
Temp Definition
°C
Dew Point Temp Definition
°C
Rel Hum Definition
%
Wind Dir Definition
10's deg

Wind Spd Definition
km/h
Visibility Definition
km
Stn Press Definition
kPa
Hmdx Definition


Wind Chill Definition


Weather Definition


TIME
00:00 5.9 4.7 92 31 2   100.09     LegendNANA
01:00 5.2 4.3 94 31 1   100.14     LegendNANA
02:00 5.1 4.7 97 31 1   100.07     LegendNANA
03:00 4.3 3.5 95   0   100.00     LegendNANA
04:00 4.5 4.0 97   0   99.95     LegendNANA
05:00 3.4 2.8 96   0   99.91     LegendNANA
06:00 3.6 3.1 97 31 1   99.92     LegendNANA
07:00 4.8 4.2 96 0 1   99.91     LegendNANA
08:00 11.8 9.4 86 31 3   99.84     LegendNANA
09:00 15.5 8.1 62 20 4   99.86     LegendNANA
10:00 18.5 8.4 52 23 6   99.89     LegendNANA
11:00 22.1 7.6 39 21 8   99.85     LegendNANA
12:00 25.4 9.6 37 24 10   99.80 26   LegendNANA
13:00 26.7 11.7 39 22 7   99.79 29   LegendNANA
14:00 28.0 13.9 42 26 7   99.72 31   LegendNANA
15:00 28.3 14.6 43 29 7   99.68 32   LegendNANA
16:00 28.2 14.8 44 30 8   99.65 32   LegendNANA
17:00 27.9 15.7 48 31 6   99.67 32   LegendNANA
18:00 25.2 15.8 56 32 1   99.70 30   LegendNANA
19:00 20.4 16.2 77   0   99.77 25   LegendNANA
20:00 18.6 16.0 85 0 1   99.82     LegendNANA
21:00 17.8 15.4 86 32 2   99.88     LegendNANA
22:00 16.3 15.3 93 32 1   99.92     LegendNANA
23:00 15.2 14.3 94   0   99.88     LegendNANA

Notes on Data Quality.

Legend

  • E = Estimated
  • M = Missing
  • NA = Not Available
  • ‡ = Partner data that is not subject to review by the National Climate Archives
Date modified: